Location: *
(43.4667°N, 11.6833°E)
Time: 23:05:21
(UTC+00:00)

Cosmos 2151 - Pass Details

Date: 19 July 2019
Orbit: 581 x 602 km, 82.5° (Epoch: 24 August)

Event Time Altitude Azimuth Distance (km) Brightness Sun altitude
Rises 19:56:41 0° 191° (SSW) 2,824 6.1 -10.7°
Reaches altitude 10° 19:58:53 10° 194° (SSW) 1,930 5.3 -11.0°
Maximum altitude 20:03:09 73° 279° (W) 632 3.2 -11.5°
Drops below altitude 10° 20:07:28 10° 5° (N) 1,954 6.2 -12.1°
Sets 20:09:42 0° 7° (N) 2,863 7.1 -12.4°
